Weather History for Danville, IL

Change the Weather History Date:

Thursday, May 8, 2014

  Actual Average (KLAF) Record (KLAF)
Temperature  
Mean Temperature 77 °F 59 °F  
Max Temperature 88 °F 71 °F 87 °F (1979)
Min Temperature 66 °F 48 °F 28 °F (1976)
Degree Days  
Heating Degree Days 0 7  
Month to date heating degree days 61  
Since 1 July heating degree days 5551  
Cooling Degree Days 12 1  
Month to date cooling degree days 8  
Year to date cooling degree days 21  
Growing Degree Days 27 (Base 50)    
Moisture  
Dew Point 60 °F    
Average Humidity 56    
Maximum Humidity 75    
Minimum Humidity 36    
Precipitation  
Precipitation 0.00 in 0.13 in 1.12 in (1961)
Month to date precipitation 1.03  
Year to date precipitation 10.86  
Sea Level Pressure  
Sea Level Pressure 29.87 in    
Wind  
Wind Speed 17 mph (SSW)    
Max Wind Speed 28 mph    
Max Gust Speed 37 mph    
Visibility 10 miles    
Events      
T = Trace of Precipitation, MM = Missing Value Source: NWS Daily Summary

Daily Weather History Graph

Daily Weather History Graph

Search for Another Location

Airport:

Trip Planner

Search our weather history database for the weather conditions in past years. The results will help you decide how hot, cold, wet, or windy it might be!

Date:

Astronomy

May. 08, 2014 Rise Set
Actual Time 5:41 AM CDT 7:52 PM CDT
Civil Twilight 5:11 AM CDT 8:22 PM CDT
Nautical Twilight 4:34 AM CDT 8:59 PM CDT
Astronomical Twilight 3:54 AM CDT 9:40 PM CDT
Moon 1:52 PM CDT (5/8) 2:13 AM CDT (5/8)
Length of Visible Light 15h 11m
Length of Day
14h 10m
Waxing Gibbous, 65% of the Moon is Illuminated
May 8
Waxing Gibbous
May 14
Full
May 21
Last Quarter
May 28
New
Jun 5
First Quarter

Hourly Weather History & Observations

Time (CDT) Temp. Heat Index Dew Point Humidity Pressure Visibility Wind Dir Wind Speed Gust Speed Precip Events Conditions
12:15 AM 71.6 °F - 56.3 °F 58% 29.84 in 10.0 mi South 16.1 mph - N/A   Clear
12:35 AM 71.6 °F - 57.2 °F 60% 29.85 in 10.0 mi South 13.8 mph - N/A   Clear
12:55 AM 70.3 °F - 56.3 °F 61% 29.85 in 10.0 mi SSW 16.1 mph - N/A   Clear
1:15 AM 70.7 °F - 56.5 °F 61% 29.85 in 10.0 mi SSW 18.4 mph 23.0 mph N/A   Clear
1:35 AM 70.7 °F - 56.8 °F 61% 29.85 in 10.0 mi SSW 17.3 mph 21.9 mph N/A   Clear
1:55 AM 70.3 °F - 57.0 °F 63% 29.85 in 10.0 mi SSW 17.3 mph 24.2 mph N/A   Clear
2:15 AM 69.8 °F - 57.2 °F 64% 29.84 in 10.0 mi SSW 17.3 mph 24.2 mph N/A   Clear
2:55 AM 69.1 °F - 57.6 °F 67% 29.85 in 10.0 mi SSW 16.1 mph 23.0 mph N/A   Clear
3:15 AM 68.9 °F - 57.7 °F 68% 29.85 in 10.0 mi SSW 15.0 mph 21.9 mph N/A   Clear
3:35 AM 68.2 °F - 57.7 °F 69% 29.86 in 10.0 mi SSW 15.0 mph 21.9 mph N/A   Clear
3:55 AM 68.4 °F - 58.1 °F 70% 29.85 in 10.0 mi SSW 16.1 mph 25.3 mph N/A   Clear
4:15 AM 68.0 °F - 58.1 °F 71% 29.86 in 10.0 mi South 11.5 mph 20.7 mph N/A   Clear
4:35 AM 68.0 °F - 58.1 °F 71% 29.87 in 10.0 mi SSW 12.7 mph - N/A   Clear
4:55 AM 67.5 °F - 58.1 °F 72% 29.87 in 10.0 mi SSW 15.0 mph 19.6 mph N/A   Clear
5:15 AM 67.1 °F - 58.1 °F 73% 29.88 in 10.0 mi SSW 16.1 mph - N/A   Clear
5:35 AM 67.1 °F - 58.1 °F 73% 29.88 in 10.0 mi SSW 13.8 mph 20.7 mph N/A   Clear
5:55 AM 66.6 °F - 58.1 °F 74% 29.88 in 10.0 mi SSW 15.0 mph 20.7 mph N/A   Clear
6:15 AM 66.4 °F - 58.3 °F 75% 29.89 in 10.0 mi SSW 16.1 mph 19.6 mph N/A   Clear
6:35 AM 67.6 °F - 58.8 °F 73% 29.90 in 10.0 mi SSW 16.1 mph - N/A   Clear
6:55 AM 68.4 °F - 59.0 °F 72% 29.90 in 10.0 mi SSW 13.8 mph - N/A   Clear
7:15 AM 68.9 °F - 59.2 °F 71% 29.90 in 10.0 mi SSW 16.1 mph 23.0 mph N/A   Clear
7:35 AM 70.2 °F - 59.5 °F 69% 29.91 in 10.0 mi SSW 16.1 mph 24.2 mph N/A   Clear
7:55 AM 70.2 °F - 59.9 °F 70% 29.91 in 10.0 mi SSW 9.2 mph 17.3 mph N/A   Clear
8:15 AM 71.4 °F - 60.3 °F 68% 29.91 in 10.0 mi SSW 13.8 mph 19.6 mph N/A   Clear
8:35 AM 73.2 °F - 60.6 °F 65% 29.92 in 10.0 mi SSW 16.1 mph - N/A   Clear
8:55 AM 74.8 °F - 61.0 °F 62% 29.92 in 10.0 mi SSW 17.3 mph - N/A   Clear
9:15 AM 77.0 °F - 61.5 °F 59% 29.92 in 10.0 mi SSW 15.0 mph 19.6 mph N/A   Clear
9:35 AM 78.1 °F - 61.3 °F 56% 29.92 in 10.0 mi SSW 18.4 mph 23.0 mph N/A   Clear
9:55 AM 78.1 °F - 61.2 °F 56% 29.92 in 10.0 mi SSW 16.1 mph 23.0 mph N/A   Clear
10:15 AM 79.2 °F - 61.3 °F 54% 29.91 in 10.0 mi South 17.3 mph 24.2 mph N/A   Clear
10:35 AM 80.6 °F 81.6 °F 61.5 °F 52% 29.91 in 10.0 mi SSW 17.3 mph 23.0 mph N/A   Clear
10:55 AM 82.9 °F 83.3 °F 60.8 °F 47% 29.90 in 10.0 mi South 18.4 mph 25.3 mph N/A   Clear
11:15 AM 83.3 °F 83.7 °F 61.0 °F 47% 29.90 in 10.0 mi South 20.7 mph 27.6 mph N/A   Clear
11:35 AM 82.9 °F 83.3 °F 60.8 °F 47% 29.91 in 7.0 mi SSW 23.0 mph 29.9 mph N/A   Clear
11:55 AM 83.8 °F 84.1 °F 61.0 °F 46% 29.91 in 7.0 mi SSW 20.7 mph - N/A   Clear
12:15 PM 83.7 °F 83.8 °F 60.4 °F 45% 29.90 in 7.0 mi SSW 18.4 mph 25.3 mph N/A   Scattered Clouds
12:35 PM 85.8 °F 85.7 °F 60.1 °F 42% 29.89 in 7.0 mi South 20.7 mph 25.3 mph N/A   Clear
12:55 PM 86.2 °F 85.4 °F 58.6 °F 39% 29.89 in 10.0 mi South 21.9 mph 27.6 mph N/A   Clear
1:15 PM 86.9 °F 86.3 °F 58.8 °F 39% 29.88 in 10.0 mi SSW 20.7 mph 27.6 mph N/A   Clear
1:35 PM 87.4 °F 86.7 °F 59.0 °F 38% 29.87 in 10.0 mi South 19.6 mph 24.2 mph N/A   Clear
1:55 PM 88.3 °F 87.3 °F 57.9 °F 36% 29.86 in 7.0 mi South 21.9 mph 27.6 mph N/A   Clear
2:15 PM 88.0 °F 87.1 °F 58.8 °F 37% 29.86 in 7.0 mi South 26.5 mph 29.9 mph N/A   Clear
2:35 PM 87.8 °F 86.9 °F 58.6 °F 37% 29.85 in 7.0 mi South 20.7 mph 29.9 mph N/A   Clear
2:55 PM 87.8 °F 87.4 °F 60.3 °F 39% 29.86 in 7.0 mi South 20.7 mph 29.9 mph N/A   Clear
3:15 PM 87.3 °F 87.0 °F 60.3 °F 40% 29.85 in 10.0 mi South 23.0 mph 31.1 mph N/A   Clear
3:35 PM 87.4 °F 86.9 °F 59.4 °F 39% 29.84 in 10.0 mi South 23.0 mph 26.5 mph N/A   Clear
3:55 PM 86.7 °F 86.5 °F 60.1 °F 41% 29.84 in 10.0 mi South 25.3 mph 32.2 mph N/A   Clear
4:15 PM 87.1 °F 86.5 °F 59.4 °F 39% 29.84 in 10.0 mi SSW 23.0 mph 28.8 mph N/A   Clear
4:35 PM 86.7 °F 85.9 °F 58.3 °F 38% 29.84 in 7.0 mi South 27.6 mph 33.4 mph N/A   Clear
4:55 PM 86.4 °F 85.2 °F 57.6 °F 37% 29.86 in 7.0 mi SSW 25.3 mph 36.8 mph N/A   Clear
5:15 PM 84.2 °F 83.7 °F 58.5 °F 41% 29.85 in 10.0 mi SSW 23.0 mph 33.4 mph N/A   Clear
5:35 PM 83.8 °F 83.3 °F 57.7 °F 41% 29.85 in 10.0 mi South 26.5 mph - N/A   Clear
5:55 PM 83.3 °F 82.9 °F 58.3 °F 42% 29.85 in 10.0 mi SSW 19.6 mph 34.5 mph N/A   Clear
6:15 PM 82.4 °F 82.3 °F 58.6 °F 44% 29.86 in 10.0 mi SSW 26.5 mph 31.1 mph N/A   Clear
6:35 PM 81.5 °F 81.7 °F 58.8 °F 46% 29.86 in 10.0 mi South 20.7 mph 29.9 mph N/A   Clear
6:55 PM 80.4 °F 81.1 °F 59.9 °F 49% 29.86 in 10.0 mi South 21.9 mph 29.9 mph N/A   Clear
7:15 PM 79.7 °F - 60.8 °F 52% 29.86 in 10.0 mi South 17.3 mph - N/A   Clear
7:35 PM 79.0 °F - 61.0 °F 54% 29.86 in 10.0 mi South 16.1 mph 29.9 mph N/A   Clear
7:55 PM 78.1 °F - 61.2 °F 56% 29.86 in 10.0 mi South 16.1 mph 23.0 mph N/A   Clear
8:15 PM 77.9 °F - 61.3 °F 57% 29.86 in 10.0 mi South 17.3 mph 24.2 mph N/A   Clear
8:35 PM 77.4 °F - 61.3 °F 58% 29.87 in 10.0 mi South 17.3 mph 24.2 mph N/A   Clear
8:55 PM 77.0 °F - 61.3 °F 58% 29.87 in 10.0 mi South 21.9 mph - N/A   Clear
9:15 PM 76.6 °F - 61.7 °F 60% 29.88 in 10.0 mi South 20.7 mph 27.6 mph N/A   Clear
9:35 PM 76.5 °F - 61.7 °F 60% 29.88 in 10.0 mi South 17.3 mph 26.5 mph N/A   Clear
9:55 PM 77.0 °F - 62.6 °F 61% 29.88 in 10.0 mi South 17.3 mph 25.3 mph N/A   Clear
10:15 PM 75.6 °F - 62.1 °F 63% 29.88 in 10.0 mi South 17.3 mph 25.3 mph N/A   Clear
10:35 PM 75.2 °F - 62.6 °F 65% 29.87 in 10.0 mi SSW 18.4 mph 21.9 mph N/A   Clear
10:55 PM 75.2 °F - 62.8 °F 65% 29.86 in 10.0 mi South 15.0 mph 21.9 mph N/A   Mostly Cloudy
11:15 PM 74.8 °F - 63.0 °F 66% 29.85 in 10.0 mi South 13.8 mph 20.7 mph N/A   Scattered Clouds
11:35 PM 74.3 °F - 63.1 °F 68% 29.85 in 10.0 mi South 17.3 mph 23.0 mph N/A   Clear
11:55 PM 74.3 °F - 63.0 °F 68% 29.85 in 10.0 mi South 20.7 mph 26.5 mph N/A   Clear